Torna al catalogo

CZ-6A DEB

AttivoSSO
NORAD 54964·DEBRIS·🇨🇳 China

Lanciato Nov 11, 2022 da Taiyuan Satellite Launch Center

Loading…

Prossimi Passaggi (prossime 24 ore)

TLE

AggiornatoSource: Space-Track

Epoca: Sep 14, 2026, 10:57 UTC

1 54964U 22151TD  26257.45645568 -.00000075  00000-0 -18941-4 0  9995
2 54964  98.8776 252.5900 0061139 114.0851 246.6730 14.07082571196940

Traccia CZ-6A DEB in tempo reale con AllMySat

Download on the App Store